Location: Unspecified
(0.0000°N, 0.0000°E)
Time: 20:17:42
(UTC+00:00)

PAYLOAD B - Visible Passes

Search period start: 26 February 2024 00:00
Search period end: 07 March 2024 00:00
Orbit: 847 x 871 km, 99.1° (Epoch: 26 February)

Date Brightness Start Highest point End Pass type
(mag) Time Alt. Az. Time Alt. Az. Time Alt. Az.
26 Feb 4.1 19:44:41 10° SSE 19:50:14 75° ENE 19:55:44 10° N visible
27 Feb 4.2 19:35:34 10° SSE 19:41:01 58° ENE 19:46:25 10° N visible
28 Feb 4.4 19:26:31 10° SSE 19:31:48 45° ENE 19:37:01 10° N visible
28 Feb 7.0 21:10:14 10° SW 21:12:18 12° WSW 21:14:23 10° W visible
29 Feb 4.7 19:17:33 10° SE 19:22:34 35° ENE 19:27:31 10° NNE visible
29 Feb 6.8 20:59:51 10° SW 21:03:06 16° WSW 21:06:22 10° WNW visible
01 Mar 5.0 19:08:42 10° SE 19:13:21 28° ENE 19:17:57 10° NNE visible
01 Mar 6.5 20:49:53 10° SSW 20:53:54 21° WSW 20:57:54 10° WNW visible
02 Mar 5.3 19:00:01 10° SE 19:04:08 22° ENE 19:08:13 10° NNE visible
02 Mar 6.1 20:40:08 10° SSW 20:44:41 26° WSW 20:49:13 10° NW visible
03 Mar 5.6 18:51:29 10° ESE 18:54:55 17° ENE 18:58:18 10° NE visible
03 Mar 5.7 20:30:32 10° SSW 20:35:28 33° WSW 20:40:22 10° NW visible
04 Mar 5.8 18:43:21 10° ESE 18:45:42 13° ENE 18:48:02 10° NE visible
04 Mar 5.2 20:21:03 10° S 20:26:15 43° WSW 20:31:26 10° NNW visible
05 Mar 4.8 20:11:38 10° S 20:17:02 55° WSW 20:22:23 10° NNW visible
06 Mar 4.4 20:02:18 10° S 20:07:49 71° WSW 20:13:16 10° NNW visible
